Regional Weather Roundup
Issued by NWS

Home | Current Version | Previous Version | Graphics & Text | Print | Product List | Glossary Off
Versions: 1 2 3 4 5 6 7 8 9 10 11 12 13 14 15 16 17 18 19 20 21 22 23 24 25 26 27 28 29 30 31 32 33 34 35 36 37 38 39 40 41 42 43 44 45 46 47 48 49 50

000
ASUS43 KTOP 291408
RWRKS

WEATHER ROUNDUP FOR KANSAS
NATIONAL WEATHER SERVICE GOODLAND KS
800 AM CST THU JAN 29 2015

NOTE:  "FAIR" INDICATES FEW OR NO CLOUDS BELOW 12,000 FEET WITH NO
SIGNIFICANT WEATHER AND/OR OBSTRUCTIONS TO VISIBILITY.

KSZ001>006-013>018-027>032-041>047-291500-
NORTHWEST KANSAS

CITY           SKY/WX    TMP DP  RH WIND       PRES   REMARKS
GOODLAND       CLOUDY    30  26  85 N13       30.44R WCI  20
HAYS           FAIR      32  21  64 NW9       30.42R
HILL CITY      CLEAR     30  25  81 W12       30.44R WCI  20
RUSSELL        FAIR      34  26  72 NW17      30.39R WCI  23
$$

KSZ061>065-074>080-084>089-291500-
SOUTHWEST KANSAS

CITY           SKY/WX    TMP DP  RH WIND       PRES   REMARKS
DODGE CITY     MOCLDY    33  27  78 N14       30.42R WCI  23
ELKHART          N/A     39  24  55 N12         N/A  WCI  32
GARDEN CITY    MOCLDY    33  29  85 N15       30.44R WCI  23
LIBERAL        CLOUDY    39  28  65 N17       30.46R WCI  30
PRATT          MOCLDY    36  30  80 N15       30.39R WCI  26
$$

KSZ066>073-081>083-090>101-291500-
SOUTHEAST KANSAS

CITY           SKY/WX    TMP DP  RH WIND       PRES   REMARKS
CHANUTE        CLOUDY    40  31  70 N21G29    30.26R WCI  30
COFFEYVILLE    CLOUDY    42  32  67 N20       30.27R
HUTCHINSON     MOCLDY    40  29  64 N22G30    30.34S WCI  30
MEDICINE LODGE   N/A     39  30  70 N14G22    30.38R WCI  31
NEWTON         CLOUDY    39  27  60 N24G33    30.34R WCI  28
PARSONS        CLOUDY    42  32  67 N14G25    30.26R
WICHITA INTL   MOCLDY    41  29  62 N16G29    30.33R
WICHITA JABRA  CLOUDY    40  29  64 N32G39    30.33R WCI  28
WICHITA MCCONL MOCLDY    41  30  65 N26G39    30.32R
WINFIELD       MOCLDY    41  30  65 N20G29    30.34R
$$

KSZ007>012-019>026-033>040-048>060-102>105-291500-
NORTHEAST KANSAS

CITY           SKY/WX    TMP DP  RH WIND       PRES   REMARKS
CONCORDIA      CLOUDY    39  27  62 N26G36    30.34R WCI  28
EMPORIA        CLOUDY    39  28  64 N18G33    30.28R WCI  30
LAWRENCE       CLOUDY    38  28  67 N23G32    30.26R WCI  27
MANHATTAN      CLOUDY    41  30  65 N9G20     30.31R
MARYSVILLE     CLOUDY    37  30  75 N28G33    30.30R WCI  25
OLATHE IND     CLOUDY    37  28  70 NW28G37   30.24R WCI  25
OLATHE EXE     CLOUDY    37  29  72 N16G25    30.22R WCI  28
SALINA         CLOUDY    41  29  62 N21G28    30.35R
TOPEKA BILLARD CLOUDY    40  28  62 N17G28    30.27R WCI  31
TOPEKA FORBES  CLOUDY    41  28  60 N22G33    30.25R
$$


USA.gov is the U.S. government's official web portal to all federal, state and local government web resources and services.